SCP
-0 -0 -0 -0 -0 -0 0 -0 0 0 -0 0 0 0 0 0 0 0 0 0 0 0 0 0 0 0 0 0 0 0 0 0 -0 0 0 0 0 0 -0 -0 0 0 -0 0
-0 -0 -0 -0 -0 -0 0 0 0 0 0 0 0 0 0 0 0 0 0 0 0 0 0 0 0 0 0 0 0 0 0 0 0 0 0 0 0 0 0 0 -0 -0 -0 0
-0 -0 -0 -0 -0 -0 0 0 0 0 0 0 0 0 0 0 0 0 0 0 0 0 0 0 0 0 0 0 0 0 0 0 0 0 0 0 0 0 -0 -0 -0 0 0 0
-0 -0 -0 -0 -0 -0 0 0 0 0 0 0 0 0 0 0 0 0 0 0 0 0 0 0 0 0 0 0 0 0 0 0 0 0 0 0 -0 0 -0 0 -0 -0 -0 0
0 0 -0 -0 -0 -0 0 0 0 0 0 0 0 0 0 0 0 0 0 0 0 0 0 0 0 0 0 0 0 0 0 0 0 0 0 0 -0 -0 -0 -0 -0 -0 -0 0
0 0 0 0 0 0 0 0 0 0 0 0 0 0 0 0 0 0 0 0 0 0 0 0 0 0 0 0 0 0 0 0 0 0 0 0 0 0 0 0 0 0 0 0
0 0 0 0 0 0 0 0 0 0 0 0 0 0 0 0 0 0 0 0 0 0 0 0 0 0 0 0 0 0 0 0 0 0 0 0 0 0 0 0 0 0 0 0
0 0 0 0 0 0 0 0 0 0 0 0 0 0 0 0 0 0 0 0 0 0 0 0 0 0 0 0 0 0 0 0 0 0 0 0 0 0 0 0 0 0 0 0
0 0 0 0 0 0 0 0 0 0 0 0 0 0 0 0 0 0 0 0 0 0 0 0 0 0 0 0 0 0 0 0 0 0 0 0 0 0 0 0 0 0 0 0
0 0 0 0 0 0 0 0 0 0 0 0 0 0 0 0 0 0 0 0 0 0 0 0 0 0 0 0 0 0 0 0 0 0 0 0 0 0 0 0 0 0 0 0
0 0 0 0 0 0 0 0 0 0 0 0 0 0 0 0 0 0 0 0 0 0 0 0 0 0 0 0 0 0 0 0 0 0 0 0 0 0 0 0 0 0 0 0
0 0 0 0 0 0 0 0 0 0 0 0 0 0 0 0 0 0 0 0 0 0 0 0 0 0 0 0 0 0 0 0 0 0 0 0 0 0 0 0 0 0 0 0
0 0 0 0 0 0 0 0 0 0 0 0 0 0 0 0 0 0 0 0 0 0 0 0 0 0 0 0 0 0 0 0 0 0 0 0 0 0 0 0 0 0 0 0
0 0 0 0 0 0 0 0 0 0 0 0 0 0 0 0 0 0 0 0 0 0 0 0 0 0 0 0 0 0 0 0 0 0 0 0 0 0 0 0 0 0 0 0
0 0 0 0 0 0 0 0 0 0 0 0 0 0 0 0 0 0 0 0 0 0 0 0 0 0 0 0 0 0 0 0 0 0 0 0 0 0 0 0 0 0 0 0
0 0 0 0 0 0 0 0 0 0 0 0 0 0 0 0 0 0 0 0 0 0 0 0 0 0 0 0 0 0 0 0 0 0 0 0 0 0 0 0 0 0 0 0
0 0 0 0 0 0 0 0 0 0 0 0 0 0 0 0 0 0 0 0 0 0 0 0 0 0 0 0 0 0 0 0 0 0 0 0 0 0 0 0 0 0 0 0
0 0 0 0 0 0 0 0 0 0 0 0 0 0 0 0 0 0 0 0 0 0 0 0 0 0 0 0 0 0 0 0 0 0 0 0 0 0 0 0 0 0 0 0
0 0 0 0 0 0 0 0 0 0 0 0 0 0 0 0 0 0 0 0 0 0 0 0 0 0 0 0 0 0 0 0 0 0 0 0 0 0 0 0 0 0 0 0
0 0 0 0 0 0 0 0 0 0 0 0 0 0 0 0 0 0 0 0 0 0 0 0 0 0 0 0 0 0 0 0 0 0 0 0 0 0 0 0 0 0 0 0
0 0 0 0 0 0 0 0 0 0 0 0 0 0 0 0 0 0 0 0 0 0 0 0 0 0 0 0 0 0 0 0 0 0 0 0 0 0 0 0 0 0 0 0
0 0 0 0 0 0 0 0 0 0 0 0 0 0 0 0 0 0 0 0 0 0 0 0 0 0 0 0 0 0 0 0 0 0 0 0 0 0 0 0 0 0 0 0
-0 0 0 0 0 0 0 0 0 0 0 0 0 0 0 0 0 0 0 0 0 0 0 0 0 0 0 0 0 0 0 0 0 0 0 0 0 0 0 0 0 0 0 0
0 0 0 0 0 0 0 0 0 0 0 0 0 0 0 0 0 0 0 0 0 0 0 0 0 0 0 0 0 0 0 0 0 0 0 0 0 0 0 0 0 0 0 0
0 0 0 0 0 0 0 0 0 0 0 0 0 0 0 0 0 0 0 0 0 0 0 0 0 0 0 0 0 0 0 0 0 -0 0 0 0 0 0 0 0 0 0 0
0 0 0 0 0 0 0 0 0 0 0 0 0 0 0 0 0 0 0 0 0 0 0 0 0 0 0 0 0 -0 0 0 -0 0 -0 0 0 0 0 0 0 0 0 0
0 0 0 0 0 0 0 0 0 0 0 0 0 0 0 0 0 0 0 0 0 0 0 0 0 0 0 0 -0 0 -0 -0 -0 0 0 0 0 0 0 0 0 0 0 0
Wind_Speed_500mb
58 59 62 62 57 40 4 2 9 10 10 10 2 4 2 2 2 2 2 4 8 8 4 1 2 2 8 8 6 9 9 15 22 15 3 3 11 11 20 15 15 14 17 12
58 56 57 58 56 48 23 7 4 8 4 8 7 8 8 2 6 2 3 4 4 2 4 7 4 2 9 11 6 11 5 12 17 11 21 18 18 2 12 14 17 27 20 2
55 55 52 52 50 42 21 7 5 3 9 5 8 5 6 9 5 4 2 1 6 8 7 3 3 8 5 5 6 6 7 25 20 21 19 14 17 19 17 21 20 21 16 20
50 51 50 47 45 37 15 13 8 5 2 7 3 7 2 8 8 3 3 6 8 8 8 9 8 5 8 12 3 9 12 26 18 24 22 25 29 32 30 29 29 30 30 15
44 43 45 44 41 34 20 9 8 6 4 4 10 7 4 7 5 5 9 13 6 4 8 8 10 12 12 16 6 17 10 22 17 30 33 35 36 38 38 37 36 37 32 37
39 37 36 38 36 31 15 15 12 5 4 5 10 2 2 2 4 6 2 2 9 12 4 12 18 23 27 26 19 23 21 23 19 31 18 21 25 37 36 34 36 30 30 28
34 32 29 28 28 27 20 19 8 8 3 8 3 4 5 7 4 8 3 5 10 6 14 19 23 28 29 27 26 28 27 21 20 21 10 25 5 7 4 14 15 20 28 20
32 29 26 22 19 18 15 14 7 7 10 7 14 11 10 11 11 14 13 6 4 11 15 16 15 18 12 13 7 12 15 19 14 14 21 27 24 10 10 12 18 17 17 11
30 28 26 24 19 14 12 11 7 5 13 6 4 10 9 12 12 11 14 6 6 8 11 13 13 10 5 9 14 3 9 16 16 10 15 16 13 9 7 12 19 19 16 13
31 28 26 27 25 19 15 12 9 5 14 14 10 13 9 5 10 10 6 6 11 11 14 17 18 18 3 11 12 10 12 11 22 19 17 14 13 9 5 20 9 26 21 17
33 31 28 28 28 25 20 15 16 9 16 26 22 21 20 17 16 15 7 11 13 10 12 11 10 13 9 11 9 8 12 10 13 15 17 29 13 5 13 19 23 20 21 18
34 33 32 28 30 30 25 16 23 22 19 21 18 22 27 25 22 14 15 7 1 5 7 4 4 9 7 12 14 9 10 9 11 8 6 2 16 24 19 18 18 23 29 28
34 33 33 32 30 32 32 29 29 17 23 42 40 32 32 40 52 40 27 18 14 13 10 9 6 11 9 16 16 20 10 7 13 11 17 11 19 33 35 29 32 40 43 44
32 30 30 33 30 32 32 29 27 24 11 15 16 17 17 19 20 28 52 46 14 13 12 20 13 13 11 13 12 13 14 7 14 25 34 30 26 15 27 34 38 41 36 35
30 26 26 29 30 30 28 28 34 33 19 11 14 26 34 36 34 28 27 36 30 20 20 14 15 20 8 19 14 20 25 24 19 20 27 27 36 40 38 37 39 38 38 44
23 23 23 24 23 19 9 9 23 33 42 9 8 9 21 20 20 31 46 40 34 33 23 18 25 20 19 13 23 23 22 28 27 32 36 40 43 40 33 25 30 38 42 45
20 20 18 18 17 20 20 8 7 19 39 9 11 11 14 21 31 22 28 35 31 27 36 33 33 28 21 21 33 38 38 39 41 32 26 27 19 21 32 33 32 33 37 41
19 20 18 18 14 16 30 15 13 25 36 11 8 8 10 20 18 22 30 28 31 23 30 23 22 20 13 15 22 26 34 22 22 10 14 23 24 19 20 26 34 41 46 48
14 14 18 8 9 11 9 26 21 27 26 8 11 9 7 12 16 10 20 22 14 13 16 31 19 20 18 15 24 21 12 11 13 13 8 9 18 27 34 40 46 50 52 53
16 10 5 8 11 12 13 10 13 12 14 18 10 16 9 8 18 23 12 16 13 11 18 15 13 28 48 32 22 16 14 9 2 8 15 24 33 40 44 46 45 44 46 47
11 13 11 10 15 15 12 12 13 16 9 15 23 48 17 10 9 4 12 5 6 9 11 10 9 9 16 18 17 19 18 8 5 12 20 30 38 47 47 45 44 46 47 49
14 11 10 16 14 11 11 10 12 12 13 16 29 45 52 22 12 13 9 7 9 10 14 8 8 8 19 26 26 19 9 9 16 21 31 39 44 43 42 46 49 54 60 63
24 11 11 11 11 12 15 17 10 10 11 16 17 12 22 24 18 12 8 12 12 5 9 9 3 24 28 27 19 9 6 14 22 30 35 42 48 43 43 49 56 58 57 54
9 11 10 9 10 13 11 14 12 16 9 15 27 26 15 18 25 12 12 12 8 12 14 15 13 30 31 20 10 6 11 19 27 34 40 47 48 44 45 50 51 50 51 57
9 8 8 12 22 16 9 18 7 5 7 13 10 6 7 13 12 11 11 15 12 12 11 7 31 36 24 13 5 8 15 23 32 38 44 47 43 45 53 55 58 52 42 55
9 11 7 13 17 22 15 11 15 3 2 7 8 6 9 13 8 15 14 11 11 11 9 32 38 26 15 5 6 14 19 26 34 39 39 38 42 49 55 59 52 34 35 45
7 10 19 23 18 13 13 19 14 11 6 6 7 10 12 2 9 12 5 7 10 26 32 30 23 17 7 2 10 16 21 28 33 35 32 37 41 41 44 43 37 30 26 19
Wind_Direction_500mb
359 4 7 4 4 12 353 222 238 325 349 235 324 154 57 351 118 130 121 349 16 25 14 39 156 161 30 10 303 302 22 307 287 323 49 287 295 319 272 282 239 239 301 314
352 357 4 6 4 5 12 346 322 336 335 260 165 130 143 360 210 105 214 168 324 10 324 276 280 129 74 25 309 334 10 278 289 218 173 193 256 287 302 276 279 275 281 230
346 350 357 5 4 3 5 334 237 103 53 48 306 194 164 165 76 95 48 88 227 208 207 196 221 207 117 12 352 336 286 276 280 292 349 333 297 279 267 281 284 283 238 270
340 344 350 359 5 5 16 8 50 352 35 95 8 261 281 217 189 143 220 182 254 267 259 240 242 245 240 192 181 239 266 275 277 277 283 277 278 282 280 273 271 280 283 304
333 339 345 352 3 8 35 20 345 326 309 277 256 170 164 254 160 282 190 255 181 236 265 315 309 298 271 287 212 251 241 273 286 273 275 274 273 271 266 263 263 263 264 272
324 331 339 347 359 14 39 15 355 321 140 241 244 156 189 151 259 173 25 323 257 227 54 326 303 289 283 275 271 280 280 273 259 276 285 289 265 253 253 258 257 254 255 266
316 319 327 341 352 11 29 11 2 298 238 257 300 246 265 239 256 280 233 254 257 68 311 293 263 257 259 260 258 254 262 255 270 268 271 250 319 69 307 296 274 255 248 266
313 310 313 319 333 346 9 6 17 318 282 287 242 227 250 250 229 247 260 232 279 311 292 275 263 236 221 224 197 242 251 249 247 249 242 265 277 195 247 239 298 214 239 234
308 302 299 300 301 310 326 326 338 310 299 183 267 257 237 265 245 226 230 229 276 274 267 258 247 257 350 230 175 238 203 231 244 206 269 277 51 58 328 305 255 20 316 279
301 297 289 285 285 282 285 282 290 295 268 258 240 242 271 229 246 266 212 220 227 230 244 248 252 254 202 251 251 187 183 217 230 233 259 280 62 340 296 239 11 351 354 338
294 292 286 277 272 269 262 253 264 244 264 270 258 244 246 239 245 260 91 238 196 226 242 256 218 253 179 252 262 259 237 230 217 246 264 253 42 221 298 347 319 346 350 340
288 284 281 274 268 261 255 241 255 249 249 264 272 248 241 230 233 262 221 317 101 309 263 232 319 229 208 272 259 179 248 253 323 257 27 8 301 300 315 310 307 322 320 311
281 278 274 272 268 259 251 242 243 256 276 284 256 264 262 245 237 227 239 236 243 233 255 292 290 260 280 256 247 271 191 242 252 288 258 298 291 300 299 291 291 300 294 291
278 273 268 267 263 260 252 244 239 227 257 275 261 250 258 241 216 226 225 230 243 244 239 231 238 244 197 258 274 273 308 156 253 265 268 278 280 269 309 306 300 299 299 286
280 276 269 266 260 255 253 250 242 216 216 311 286 284 274 242 239 222 200 205 226 224 210 224 228 239 247 248 281 265 236 244 252 268 309 306 295 295 297 299 297 296 295 297
296 293 279 274 268 251 231 264 236 220 215 252 269 279 260 223 213 214 216 216 222 216 224 239 244 231 229 261 251 275 262 256 266 286 292 292 288 287 292 293 296 296 293 291
290 295 292 286 263 218 194 238 203 196 193 223 247 236 213 220 214 202 196 207 210 216 222 238 249 229 208 258 260 265 261 270 286 291 282 279 275 289 293 296 299 302 301 296
293 299 291 290 259 245 229 205 194 172 179 214 260 245 222 187 185 184 202 200 208 219 234 234 244 231 233 255 256 257 257 270 275 242 264 272 286 297 303 308 307 304 300 299
286 297 301 256 225 210 206 207 200 203 210 234 220 251 165 179 200 171 177 195 199 204 227 229 235 229 220 254 253 244 216 239 274 273 261 271 301 305 306 304 301 300 299 299
276 285 206 230 212 179 143 148 191 223 228 218 253 237 234 241 181 191 191 193 233 204 210 206 235 246 249 244 243 238 216 195 217 289 298 312 310 310 306 301 301 301 300 301
232 208 221 213 166 156 169 194 208 207 223 210 215 228 228 234 249 199 216 185 186 235 179 224 213 237 210 198 186 170 167 176 274 291 297 302 302 300 300 301 299 297 296 297
212 220 217 184 191 198 192 202 208 203 215 195 215 216 216 225 232 238 191 236 187 243 134 227 243 132 148 156 152 158 189 256 282 290 299 302 302 298 292 291 296 299 299 301
250 204 198 217 193 203 204 192 195 191 202 197 177 169 180 202 225 229 213 222 227 123 217 225 245 134 155 152 155 176 253 284 294 299 302 301 305 298 291 297 301 299 300 303
241 214 206 228 185 235 203 214 206 181 196 185 186 167 174 173 181 209 209 212 210 217 225 213 151 159 152 152 168 234 289 299 304 306 307 308 308 301 301 302 301 311 303 314
236 241 231 219 245 272 204 227 186 188 182 157 171 225 210 189 197 210 221 176 220 203 203 131 143 151 148 158 201 287 307 312 313 314 314 311 309 307 308 305 296 306 305 320
229 238 258 280 288 249 195 215 203 189 188 262 220 245 209 211 217 192 190 200 199 155 127 136 144 145 155 182 294 306 308 311 314 315 315 314 315 318 319 329 319 303 310 319
244 243 240 251 262 285 27 24 25 328 226 229 232 229 212 244 219 203 185 182 115 132 136 140 138 143 150 307 316 312 309 313 317 317 319 318 324 325 343 349 351 322 313 335
Wind_Speed_850mb
58 59 62 62 57 40 4 2 9 10 10 10 2 4 2 2 2 2 2 4 8 8 4 1 2 2 8 8 6 9 9 15 22 15 3 3 11 11 20 15 15 14 17 12
58 56 57 58 56 48 23 7 4 8 4 8 7 8 8 2 6 2 3 4 4 2 4 7 4 2 9 11 6 11 5 12 17 11 21 18 18 2 12 14 17 27 20 2
55 55 52 52 50 42 21 7 5 3 9 5 8 5 6 9 5 4 2 1 6 8 7 3 3 8 5 5 6 6 7 25 20 21 19 14 17 19 17 21 20 21 16 20
50 51 50 47 45 37 15 13 8 5 2 7 3 7 2 8 8 3 3 6 8 8 8 9 8 5 8 12 3 9 12 26 18 24 22 25 29 32 30 29 29 30 30 15
44 43 45 44 41 34 20 9 8 6 4 4 10 7 4 7 5 5 9 13 6 4 8 8 10 12 12 16 6 17 10 22 17 30 33 35 36 38 38 37 36 37 32 37
39 37 36 38 36 31 15 15 12 5 4 5 10 2 2 2 4 6 2 2 9 12 4 12 18 23 27 26 19 23 21 23 19 31 18 21 25 37 36 34 36 30 30 28
34 32 29 28 28 27 20 19 8 8 3 8 3 4 5 7 4 8 3 5 10 6 14 19 23 28 29 27 26 28 27 21 20 21 10 25 5 7 4 14 15 20 28 20
32 29 26 22 19 18 15 14 7 7 10 7 14 11 10 11 11 14 13 6 4 11 15 16 15 18 12 13 7 12 15 19 14 14 21 27 24 10 10 12 18 17 17 11
30 28 26 24 19 14 12 11 7 5 13 6 4 10 9 12 12 11 14 6 6 8 11 13 13 10 5 9 14 3 9 16 16 10 15 16 13 9 7 12 19 19 16 13
31 28 26 27 25 19 15 12 9 5 14 14 10 13 9 5 10 10 6 6 11 11 14 17 18 18 3 11 12 10 12 11 22 19 17 14 13 9 5 20 9 26 21 17
33 31 28 28 28 25 20 15 16 9 16 26 22 21 20 17 16 15 7 11 13 10 12 11 10 13 9 11 9 8 12 10 13 15 17 29 13 5 13 19 23 20 21 18
34 33 32 28 30 30 25 16 23 22 19 21 18 22 27 25 22 14 15 7 1 5 7 4 4 9 7 12 14 9 10 9 11 8 6 2 16 24 19 18 18 23 29 28
34 33 33 32 30 32 32 29 29 17 23 42 40 32 32 40 52 40 27 18 14 13 10 9 6 11 9 16 16 20 10 7 13 11 17 11 19 33 35 29 32 40 43 44
32 30 30 33 30 32 32 29 27 24 11 15 16 17 17 19 20 28 52 46 14 13 12 20 13 13 11 13 12 13 14 7 14 25 34 30 26 15 27 34 38 41 36 35
30 26 26 29 30 30 28 28 34 33 19 11 14 26 34 36 34 28 27 36 30 20 20 14 15 20 8 19 14 20 25 24 19 20 27 27 36 40 38 37 39 38 38 44
23 23 23 24 23 19 9 9 23 33 42 9 8 9 21 20 20 31 46 40 34 33 23 18 25 20 19 13 23 23 22 28 27 32 36 40 43 40 33 25 30 38 42 45
20 20 18 18 17 20 20 8 7 19 39 9 11 11 14 21 31 22 28 35 31 27 36 33 33 28 21 21 33 38 38 39 41 32 26 27 19 21 32 33 32 33 37 41
19 20 18 18 14 16 30 15 13 25 36 11 8 8 10 20 18 22 30 28 31 23 30 23 22 20 13 15 22 26 34 22 22 10 14 23 24 19 20 26 34 41 46 48
14 14 18 8 9 11 9 26 21 27 26 8 11 9 7 12 16 10 20 22 14 13 16 31 19 20 18 15 24 21 12 11 13 13 8 9 18 27 34 40 46 50 52 53
16 10 5 8 11 12 13 10 13 12 14 18 10 16 9 8 18 23 12 16 13 11 18 15 13 28 48 32 22 16 14 9 2 8 15 24 33 40 44 46 45 44 46 47
11 13 11 10 15 15 12 12 13 16 9 15 23 48 17 10 9 4 12 5 6 9 11 10 9 9 16 18 17 19 18 8 5 12 20 30 38 47 47 45 44 46 47 49
14 11 10 16 14 11 11 10 12 12 13 16 29 45 52 22 12 13 9 7 9 10 14 8 8 8 19 26 26 19 9 9 16 21 31 39 44 43 42 46 49 54 60 63
24 11 11 11 11 12 15 17 10 10 11 16 17 12 22 24 18 12 8 12 12 5 9 9 3 24 28 27 19 9 6 14 22 30 35 42 48 43 43 49 56 58 57 54
9 11 10 9 10 13 11 14 12 16 9 15 27 26 15 18 25 12 12 12 8 12 14 15 13 30 31 20 10 6 11 19 27 34 40 47 48 44 45 50 51 50 51 57
9 8 8 12 22 16 9 18 7 5 7 13 10 6 7 13 12 11 11 15 12 12 11 7 31 36 24 13 5 8 15 23 32 38 44 47 43 45 53 55 58 52 42 55
9 11 7 13 17 22 15 11 15 3 2 7 8 6 9 13 8 15 14 11 11 11 9 32 38 26 15 5 6 14 19 26 34 39 39 38 42 49 55 59 52 34 35 45
7 10 19 23 18 13 13 19 14 11 6 6 7 10 12 2 9 12 5 7 10 26 32 30 23 17 7 2 10 16 21 28 33 35 32 37 41 41 44 43 37 30 26 19
Wind_Direction_850mb
359 4 7 4 4 12 353 222 238 325 349 235 324 154 57 351 118 130 121 349 16 25 14 39 156 161 30 10 303 302 22 307 287 323 49 287 295 319 272 282 239 239 301 314
352 357 4 6 4 5 12 346 322 336 335 260 165 130 143 360 210 105 214 168 324 10 324 276 280 129 74 25 309 334 10 278 289 218 173 193 256 287 302 276 279 275 281 230
346 350 357 5 4 3 5 334 237 103 53 48 306 194 164 165 76 95 48 88 227 208 207 196 221 207 117 12 352 336 286 276 280 292 349 333 297 279 267 281 284 283 238 270
340 344 350 359 5 5 16 8 50 352 35 95 8 261 281 217 189 143 220 182 254 267 259 240 242 245 240 192 181 239 266 275 277 277 283 277 278 282 280 273 271 280 283 304
333 339 345 352 3 8 35 20 345 326 309 277 256 170 164 254 160 282 190 255 181 236 265 315 309 298 271 287 212 251 241 273 286 273 275 274 273 271 266 263 263 263 264 272
324 331 339 347 359 14 39 15 355 321 140 241 244 156 189 151 259 173 25 323 257 227 54 326 303 289 283 275 271 280 280 273 259 276 285 289 265 253 253 258 257 254 255 266
316 319 327 341 352 11 29 11 2 298 238 257 300 246 265 239 256 280 233 254 257 68 311 293 263 257 259 260 258 254 262 255 270 268 271 250 319 69 307 296 274 255 248 266
313 310 313 319 333 346 9 6 17 318 282 287 242 227 250 250 229 247 260 232 279 311 292 275 263 236 221 224 197 242 251 249 247 249 242 265 277 195 247 239 298 214 239 234
308 302 299 300 301 310 326 326 338 310 299 183 267 257 237 265 245 226 230 229 276 274 267 258 247 257 350 230 175 238 203 231 244 206 269 277 51 58 328 305 255 20 316 279
301 297 289 285 285 282 285 282 290 295 268 258 240 242 271 229 246 266 212 220 227 230 244 248 252 254 202 251 251 187 183 217 230 233 259 280 62 340 296 239 11 351 354 338
294 292 286 277 272 269 262 253 264 244 264 270 258 244 246 239 245 260 91 238 196 226 242 256 218 253 179 252 262 259 237 230 217 246 264 253 42 221 298 347 319 346 350 340
288 284 281 274 268 261 255 241 255 249 249 264 272 248 241 230 233 262 221 317 101 309 263 232 319 229 208 272 259 179 248 253 323 257 27 8 301 300 315 310 307 322 320 311
281 278 274 272 268 259 251 242 243 256 276 284 256 264 262 245 237 227 239 236 243 233 255 292 290 260 280 256 247 271 191 242 252 288 258 298 291 300 299 291 291 300 294 291
278 273 268 267 263 260 252 244 239 227 257 275 261 250 258 241 216 226 225 230 243 244 239 231 238 244 197 258 274 273 308 156 253 265 268 278 280 269 309 306 300 299 299 286
280 276 269 266 260 255 253 250 242 216 216 311 286 284 274 242 239 222 200 205 226 224 210 224 228 239 247 248 281 265 236 244 252 268 309 306 295 295 297 299 297 296 295 297
296 293 279 274 268 251 231 264 236 220 215 252 269 279 260 223 213 214 216 216 222 216 224 239 244 231 229 261 251 275 262 256 266 286 292 292 288 287 292 293 296 296 293 291
290 295 292 286 263 218 194 238 203 196 193 223 247 236 213 220 214 202 196 207 210 216 222 238 249 229 208 258 260 265 261 270 286 291 282 279 275 289 293 296 299 302 301 296
293 299 291 290 259 245 229 205 194 172 179 214 260 245 222 187 185 184 202 200 208 219 234 234 244 231 233 255 256 257 257 270 275 242 264 272 286 297 303 308 307 304 300 299
286 297 301 256 225 210 206 207 200 203 210 234 220 251 165 179 200 171 177 195 199 204 227 229 235 229 220 254 253 244 216 239 274 273 261 271 301 305 306 304 301 300 299 299
276 285 206 230 212 179 143 148 191 223 228 218 253 237 234 241 181 191 191 193 233 204 210 206 235 246 249 244 243 238 216 195 217 289 298 312 310 310 306 301 301 301 300 301
232 208 221 213 166 156 169 194 208 207 223 210 215 228 228 234 249 199 216 185 186 235 179 224 213 237 210 198 186 170 167 176 274 291 297 302 302 300 300 301 299 297 296 297
212 220 217 184 191 198 192 202 208 203 215 195 215 216 216 225 232 238 191 236 187 243 134 227 243 132 148 156 152 158 189 256 282 290 299 302 302 298 292 291 296 299 299 301
250 204 198 217 193 203 204 192 195 191 202 197 177 169 180 202 225 229 213 222 227 123 217 225 245 134 155 152 155 176 253 284 294 299 302 301 305 298 291 297 301 299 300 303
241 214 206 228 185 235 203 214 206 181 196 185 186 167 174 173 181 209 209 212 210 217 225 213 151 159 152 152 168 234 289 299 304 306 307 308 308 301 301 302 301 311 303 314
236 241 231 219 245 272 204 227 186 188 182 157 171 225 210 189 197 210 221 176 220 203 203 131 143 151 148 158 201 287 307 312 313 314 314 311 309 307 308 305 296 306 305 320
229 238 258 280 288 249 195 215 203 189 188 262 220 245 209 211 217 192 190 200 199 155 127 136 144 145 155 182 294 306 308 311 314 315 315 314 315 318 319 329 319 303 310 319
244 243 240 251 262 285 27 24 25 328 226 229 232 229 212 244 219 203 185 182 115 132 136 140 138 143 150 307 316 312 309 313 317 317 319 318 324 325 343 349 351 322 313 335